Showing default

BEIDOU 3M20, 44865

Orbit data source: Space-Track

BEIDOU 3M20, 44865 is a payload satellite owned by CNSA (CN) in MEO that was launched on Mon, 16 Dec 2019 UTC via a CHANG ZHENG 3B/YZ-1 launch vehicle from the Xichang Space Center, China (XSC). Payload-class satellites include a variety of spacecraft equipped with specific instruments for various scientific and technological missions. These include communications satellites like Starlink; space stations such as the ISS; scientific satellites like the Hubble; Earth observation satellites from companies like Planet Labs, Umbra, and HawkEye 360; GPS; miniature CubeSats for education and research; and military/defense satellites.

Loading next visibility...
Identifier
44865, 2019-090B
Orbit
MEO
Country
Flag of CNCN / PRC
Related business
Manufacturer
CAST
Mission
Operational Defense Navigation
Bus & Motor
BD-3M, Unknown motor
Mass
1,014 kg wet, ~850 kg dry
Launch date (UTC)
2019-12-16 (6 years ago)
Launch vehicle
CHANG ZHENG 3B/YZ-1
Launch site
Xichang Space Center, China (XSC)
Object type
Payload
Rocket body
Debris
Shape & HBR
Box + 2 Pan, Unknown HBR
Radar Cross Section
8.984 m², Large (>1 m²)

Expand to show TLE details & history
Last TLE update: 19 hours ago

TLE from 19 hours ago
0 BEIDOU 3M20
1 44865U 19090B   26036.77316757 -.00000048  00000-0  00000-0 0  9999
2 44865  56.4436  67.1688 0017258 300.3902  56.7704  1.86231409 41764
Epoch: 2026-02-05T18:33Z
TLE epoch observation values (Epoch: 2026-02-05T18:33:21.678Z)
Latitude
-2.27929°
Longitude
11.40668°
Altitude
21,502.348 km
Speed
3.783 km/s
True Right ascension
04h 22m 40s
True Declination
-2° 16' 33"
Sunlit
Object was in daylight at epoch
Visualization orbit readout
Latitude
Unknown
Longitude
Unknown
Altitude
Unknown
Speed
Unknown
Apparent Right ascension
Unknown
Apparent Declination
Unknown
Sunlit
N/A
Visualization observer readout
Local Sidereal Time
16:06:51
Azimuth
Unknown
Elevation
Unknown
Doppler factor
Unknown
Orbital elements
Apogee altitude
21,576.122 km
Perigee altitude
21,479.802 km
Semi-major axis
27,906.099 km
Eccentricity
0.00173
Inclination
56.4436°
RAAN
67.1688°
Arg. of periapsis
300.3902°
True anomaly
56.93602°
Mean anomaly
56.7704°
Eccentric anomaly
56.85319°
Mean motion
0.46558 °/min
Orbital period
773.23 mins
BSTAR
0
Loading maneuver chart data...
Computing Atmospheric mass density...
Loading historical data...
Loading historical data...
Loading historical data...
Loading historical data...
Loading historical data...
Loading historical data...
Loading historical data...
Other satellites on launch #90 in the year 2019 (2019-12-16 UTC)

Documentation

Showing up to 5 results
|